Other Surface Observations
Issued by NWS Tucson, AZ

Home | Current Version | Previous Version | Text Only | Print | Product List | Glossary On
Versions: 1 2 3 4 5 6 7 8 9 10 11 12 13 14 15 16 17 18 19 20 21 22 23 24 25 26 27 28 29 30 31 32 33 34 35 36 37 38 39 40 41 42 43 44 45 46 47 48 49 50
990
SXUS55 KTWC 060915
OSOTWC

WEATHER ROUNDUP FOR SOUTHEAST ARIZONA
NATIONAL WEATHER SERVICE TUCSON AZ
215 AM MST SAT FEB 06 2016

AZZ504>506-514-061015-
LOCATION       SKY/WX    TMP DP  RH WIND       PRES   REMARKS
TUCSON         CLEAR     47  13  25 SE14      30.36S
DAVIS-MONTHAN  CLEAR     41  16  36 SE10      30.34S
CHILDRENS PARK N/A      N/A N/A  42 E3                PIMA CO DEQ
ALVERNON/22ND  N/A       42 N/A N/A NE1               PIMA CO DEQ
CHERRY/GLENN   N/A       45 N/A N/A E3                PIMA CO DEQ
TANGERINE      N/A       41 N/A N/A N5                PIMA CO DEQ
CONTL RANCH    N/A       41  24  50 SE3               PIMA CO DEQ
GRANT/1ST      N/A       47  16  28 SE2               PIMA CO DEQ
CRAYCROFT/22ND N/A       43  15  32 SW3               PIMA CO DEQ
GOLFLINKS/KOLB N/A       46  13  26 SE4               PIMA CO DEQ
AJO/12TH       N/A       47  15  27 SE6               PIMA CO DEQ
SAGUARO EAST   N/A       10 -20  22 SE3               PIMA CO DEQ
FAIRGROUNDS    N/A       46 N/A N/A SE10              PIMA CO DEQ
SAGUARO        N/A       39  14  36 N2                *SABINO CYN
SAN CARLOS     N/A       39  14  36 NW3               *SAN CARLOS
GREEN VALLEY   N/A       38  13  36 SW2               PIMA CO DEQ
HORSE CAMP CYN N/A       42  10  27 NE14G18           *ARAVAIPA CYN
RINCON MTNS    N/A       37 -17   9 E15G24            *NR MANNING CAMP
$$

AZZ509>511-061015-
LOCATION       SKY/WX    TMP DP  RH WIND       PRES   REMARKS
SAFFORD        CLEAR     44   9  23 E8        30.42R
STRAY HORSE    N/A       26 -12  18 N4                *
TRAIL CABIN    N/A       31   3  29 SE6               *N OF GRANVILLE
BLACK HILLS    N/A       34  17  49 CALM              *N OF FT THOMAS
DRY LAKE       N/A       29  -2  26 SE7               *NATANES MTNS
NOON CREEK     N/A       37  11  33 W9G12             *PINALENO MTNS
COLUMBINE      N/A       22 -20  14 CALM              *PINALENO MTNS
GUTHRIE        N/A       33   1  25 SE9G16            *SW OF GUTHRIE
$$

AZZ502-503-513-061015-
LOCATION       SKY/WX    TMP DP  RH WIND       PRES   REMARKS
NOGALES        CLEAR     41  10  28 VRB6      30.34S
SELLS          N/A       44  15  31 E4                *
SASABE         N/A       34  16  48 NW2               *ALTAR VLY
HOPKINS        N/A       44 -23   5 E8G20             *SANTA RITA MTNS
CARR CYN       N/A       44   1  16 S6G14             *W OF HEREFORD
$$

AZZ507-508-512-061015-
LOCATION       SKY/WX    TMP DP  RH WIND       PRES   REMARKS
SIERRA VISTA   CLEAR     32  13  45 S7        30.39S WCI  25
DOUGLAS        CLEAR     34   9  35 NE10      30.41F WCI  26
EMPIRE MTNS    N/A       39  10  30 S6G11             *LAS CIENEGAS NCA
MULESHOE RANCH N/A       44  10  25 E10G19            *PRESERVE
HEADQUARTERS   N/A       29  11  47 E6                *CHIRICAHUA MTNS
$$

.............................NOTES.............................
THIS IS AN AUTOMATED COLLECTIVE WITH MINIMAL QUALITY CONTROL.
PIMA CO DEQ SITES HAVE NONSTANDARD WIND SENSOR HEIGHTS.
PIMA CO DEQ SITES DO NOT REPORT WIND GUSTS.
* INDICATES WIND SENSORS LOCATED AT 20 FEET INSTEAD OF 33 FEET.
..............................KEY..............................
SKY/WX - SKY CONDITION/WEATHER
TMP    - TEMPERATURE IN FAHRENHEIT
DP     - DEWPOINT IN FAHRENHEIT
RH     - RELATIVE HUMIDITY IN PERCENT
WIND   - DIRECTION AND SPEED IN MILES PER HOUR (MPH)
VRB    - VARIABLE WIND DIRECTION
PRES   - MEAN SEA LEVEL PRESSURE IN INCHES OF MERCURY
         F - FALLING PRESSURE   R - RISING PRESSURE
         S - STEADY PRESSURE
VSB    - VISIBILITY IN MILES
HX     - HEAT INDEX IN FAHRENHEIT
WCI    - WIND CHILL INDEX IN FAHRENHEIT
N/A    - NOT AVAILABLE
AFB    - AIR FORCE BASE
         DAVIS-MONTHAN IS DAVIS-MONTHAN AIR FORCE BASE
CYN    - CANYON
MTNS   - MOUNTAINS
NCA    - NATIONAL CONSERVATION AREA
NR     - NEAR
VLY    - VALLEY
CONTL  - CONTINENTAL
PIMA CO DEQ - PIMA COUNTY DEPT OF ENVIRONMENTAL QUALITY



USA.gov is the U.S. government's official web portal to all federal, state and local government web resources and services.